Temperature
22 21 20 20 20 20 20 20 19 19 19 18 18 18 18 18 18 18 18 18 17 17 18 17 17 17 17 17 17 17 17 17 17 17 17 17 17 17 17 17 17 17 17
22 21 20 20 20 20 20 20 19 19 19 18 18 18 18 18 18 18 18 18 18 17 17 17 17 17 17 17 17 17 17 17 17 17 17 18 18 17 18 17 17 17 17
23 22 21 20 20 20 20 19 19 19 19 18 18 18 18 18 18 18 18 18 18 17 17 17 17 17 17 17 17 17 17 17 17 17 18 18 19 18 18 17 17 17 17
23 22 21 21 20 20 20 20 19 19 19 18 18 18 18 18 18 18 18 18 18 17 17 17 17 17 17 17 17 17 17 17 17 17 17 17 18 18 18 17 17 17 17
24 22 22 21 21 20 20 19 19 19 19 18 18 18 17 17 17 17 17 18 17 17 17 17 17 17 17 17 17 17 17 17 17 17 17 17 17 18 18 18 17 17 17
24 23 22 21 20 20 20 19 19 19 19 18 18 18 18 17 17 17 17 17 17 17 17 17 17 17 17 17 17 17 17 17 17 17 18 18 18 18 18 18 17 17 17
24 22 22 21 20 20 19 19 19 19 19 18 18 18 18 17 17 17 17 17 17 17 17 17 17 17 17 17 17 17 17 17 17 17 17 18 18 18 18 18 18 17 17
24 23 22 21 20 20 19 19 19 19 18 18 18 18 18 17 17 17 17 17 17 17 17 17 17 17 17 17 17 17 17 17 17 17 17 17 17 17 18 18 17 17 17
24 23 22 21 21 20 19 19 19 18 18 18 18 18 17 17 17 17 17 17 17 17 17 17 17 17 17 17 17 17 17 17 17 17 17 17 17 17 17 17 17 17 17
24 23 22 21 21 20 19 19 18 18 18 18 18 17 17 17 17 17 17 17 17 17 17 17 17 17 17 17 17 17 17 17 17 17 17 17 17 17 17 17 17 17 17
25 23 22 21 21 20 19 18 18 18 18 18 18 17 17 17 17 17 17 17 17 17 17 17 17 17 17 17 17 17 17 17 17 16 16 17 16 16 16 16 16 16 16
25 23 22 21 21 20 19 19 18 18 18 18 17 17 17 17 17 17 17 17 17 17 17 17 17 17 17 17 17 17 16 16 16 16 16 16 16 16 16 16 16 16 16
24 23 22 21 21 20 19 19 18 18 18 18 17 17 17 17 17 17 17 17 17 17 17 17 17 17 16 16 17 16 16 16 16 16 16 16 16 16 16 16 16 16 16
23 23 22 21 20 20 19 19 18 18 18 17 17 17 17 17 17 17 17 17 17 17 17 17 17 16 16 16 16 16 16 16 16 16 16 16 16 16 16 16 15 15 15
23 22 21 21 20 19 19 19 18 18 18 17 17 17 17 17 17 17 17 17 17 16 16 16 16 16 16 16 16 16 16 16 16 16 16 16 15 15 15 15 15 15 14
23 22 21 21 20 20 19 19 19 18 18 17 17 17 17 17 17 17 17 17 17 16 16 16 16 16 16 16 16 16 15 15 15 15 15 15 15 15 15 15 15 14 14
23 22 21 21 20 20 20 19 19 19 18 18 17 17 17 17 17 17 17 16 16 16 16 16 16 16 16 16 16 15 15 15 15 15 15 15 15 15 14 14 14 14 14
23 22 21 21 20 20 19 19 19 18 18 18 17 17 17 17 17 17 16 16 16 16 16 16 15 15 15 15 15 15 15 15 14 14 14 14 14 14 14 14 13 13 13
22 21 21 21 20 20 20 19 19 18 18 18 17 17 17 17 16 16 16 16 16 16 15 15 15 15 15 15 15 15 14 14 14 14 14 13 13 13 13 13 13 13 12
21 20 20 20 20 19 19 19 18 18 18 18 17 17 17 17 16 16 16 16 15 15 15 15 15 15 15 15 14 14 14 14 13 13 13 13 13 13 12 12 12 12 12
19 19 19 19 19 19 18 18 18 18 18 18 17 17 17 16 16 16 15 15 15 15 15 15 15 14 14 14 14 14 13 13 13 12 12 12 12 12 12 12 11 11 11
18 18 18 18 18 18 18 18 17 17 17 17 17 17 16 16 15 15 15 15 14 14 14 14 14 14 14 13 13 13 13 12 12 12 12 12 11 11 11 11 11 10 10
17 17 17 17 17 17 17 17 17 17 17 17 16 16 16 15 15 14 14 14 14 14 14 13 13 13 13 13 12 12 12 12 11 11 11 11 11 10 10 10 10 9 9
17 17 17 17 17 17 17 17 17 17 16 16 16 15 15 14 14 14 14 13 13 13 13 13 13 12 12 12 12 12 11 11 11 10 10 10 10 9 9 9 9 8 8
16 16 16 16 16 16 16 16 16 16 15 15 15 14 14 14 13 13 13 13 13 13 13 13 12 12 12 11 11 11 11 10 10 9 9 9 9 8 8 8 8 8 7
15 15 15 15 15 15 15 15 16 15 15 14 14 14 13 13 13 13 13 12 12 12 12 12 12 11 11 11 11 10 10 10 9 9 9 8 8 8 8 8 8 7 7
Wind_Speed
10 11 11 11 11 12 13 13 13 13 11 8 8 8 7 7 7 7 8 9 9 8 8 7 7 7 6 6 6 5 6 5 4 3 3 3 4 4 4 5 4 6 6
10 11 12 12 13 13 13 14 14 14 13 10 8 6 6 6 7 6 7 9 9 9 9 8 7 7 6 7 6 6 5 4 5 4 3 3 4 4 4 4 5 4 5
11 12 12 13 13 13 13 12 14 14 13 11 8 6 5 5 6 7 7 8 9 10 10 9 8 6 7 7 7 7 7 5 5 5 4 3 3 3 4 4 4 4 4
11 11 12 12 12 12 12 12 12 13 12 11 10 11 9 9 9 7 7 8 9 10 10 10 9 7 7 7 8 8 6 6 6 5 5 5 3 3 3 4 4 4 4
10 11 11 11 11 11 11 11 11 11 11 12 12 11 10 8 7 7 8 8 8 10 10 10 9 8 8 8 8 6 8 7 7 5 5 5 4 6 4 4 4 4 3
9 10 10 10 10 10 10 10 10 10 11 11 11 11 11 10 9 9 8 8 7 8 10 10 9 9 8 8 8 8 9 8 7 6 6 6 5 5 5 4 5 4 3
10 10 11 11 10 11 10 10 10 10 10 10 10 11 11 11 11 9 9 8 8 8 9 9 9 9 8 8 8 8 8 8 8 8 7 6 6 5 4 4 4 3 3
10 10 11 10 10 11 11 10 10 10 10 10 9 9 10 9 8 9 8 8 7 7 7 9 9 9 9 9 8 8 8 7 8 9 8 6 7 6 6 5 5 4 4
10 10 10 10 10 10 10 10 10 9 9 9 8 8 9 8 8 7 8 7 7 7 8 8 8 8 8 8 7 7 8 7 8 8 8 8 7 6 7 6 6 6 5
10 10 10 9 10 10 9 9 9 8 8 8 7 7 8 8 8 7 7 7 7 7 8 8 8 8 8 8 8 8 8 8 7 6 7 7 7 6 6 6 6 6 5
10 10 10 9 9 9 9 9 8 8 7 7 7 6 7 7 7 7 7 7 7 7 8 8 8 8 8 8 8 8 7 8 7 7 8 8 6 5 5 6 6 5 4
10 10 10 10 10 9 9 9 8 8 7 7 7 7 6 6 7 7 7 7 7 7 7 7 7 8 8 8 8 8 7 7 8 8 7 8 6 6 6 5 6 4 4
10 10 11 10 10 9 9 9 8 8 7 7 7 7 7 6 6 6 6 6 6 6 6 7 7 7 7 7 7 7 7 7 7 7 7 7 7 7 6 6 5 5 5
11 11 11 10 10 9 9 9 8 7 7 7 7 6 6 6 6 6 5 5 5 6 6 6 6 6 6 6 6 6 6 6 5 5 5 5 6 7 6 5 5 5 5
11 11 11 10 10 10 10 9 8 7 7 7 7 6 6 5 5 5 5 5 4 5 4 4 4 4 4 4 5 5 5 5 4 4 4 3 2 1 2 3 5 6 5
10 11 11 11 12 11 11 10 9 8 7 7 7 6 6 6 5 4 4 4 4 3 3 3 3 3 2 2 2 3 4 4 4 4 3 3 4 5 5 4 3 3 6
10 10 10 10 11 11 11 11 10 9 8 7 6 6 6 6 5 5 4 4 4 3 3 3 3 2 2 4 3 2 3 3 3 3 3 3 4 6 6 7 7 5 4
9 9 9 10 10 10 11 10 10 9 9 8 7 6 6 6 6 5 5 4 3 3 3 3 2 2 3 4 3 3 3 2 2 2 3 4 4 4 6 7 6 5 4
6 7 8 9 9 10 11 11 10 10 9 8 7 6 6 6 6 6 5 4 4 4 3 3 3 3 3 4 4 3 3 4 3 2 3 4 5 6 8 8 8 7 6
5 6 7 8 9 9 10 11 10 9 8 7 7 6 6 6 6 6 5 5 4 4 4 3 3 3 3 3 3 3 4 4 4 4 4 4 5 6 7 8 8 8 7
6 6 7 7 7 8 9 9 8 8 7 6 6 6 6 6 5 5 4 5 5 4 4 4 3 3 3 4 3 1 3 5 5 4 4 4 7 7 5 5 6 8 9
6 7 7 6 6 7 8 8 7 6 6 6 6 5 5 4 5 5 4 4 5 5 5 5 4 3 3 3 4 3 2 2 5 4 4 5 9 8 7 6 9 10 9
6 6 7 7 6 5 6 7 5 5 6 6 5 5 5 4 4 5 5 5 5 4 4 4 4 3 3 4 6 6 5 5 4 5 8 10 11 10 9 10 10 9 7
6 6 7 7 6 5 5 5 5 5 5 6 5 5 4 4 3 3 3 4 4 5 5 5 4 4 4 4 5 5 6 8 7 7 10 11 9 8 9 9 6 5 5
5 5 5 5 5 5 5 4 4 4 5 5 4 4 4 4 3 3 1 1 2 2 4 4 5 5 5 4 4 5 6 6 7 9 7 7 7 7 7 6 6 6 6
5 5 6 5 5 4 4 3 3 4 4 4 4 3 3 3 4 4 3 7 5 5 4 3 2 3 4 7 7 6 7 8 9 8 7 7 7 7 7 7 7 6 6
Wind_Direction
187 181 183 187 189 187 187 189 188 184 184 189 197 199 207 213 215 215 211 211 213 208 215 220 196 211 206 212 207 201 199 208 203 212 204 204 201 195 197 209 202 192 195
181 180 183 186 193 191 191 189 191 189 192 194 198 203 207 213 213 214 213 215 214 213 211 219 216 209 209 214 218 213 223 209 201 220 215 211 195 203 201 194 197 198 192
186 183 187 190 192 192 193 194 193 193 196 195 195 198 199 213 214 212 211 212 215 219 224 218 226 219 221 213 216 214 220 224 216 222 233 235 218 190 181 195 193 195 200
188 185 188 190 193 193 190 193 191 195 196 195 201 203 207 210 216 216 212 210 215 223 224 223 224 224 228 220 222 217 223 226 229 216 233 259 288 243 195 188 186 190 203
188 186 188 187 189 188 186 188 190 193 195 199 205 210 220 221 220 218 218 221 219 222 225 223 221 222 229 228 232 224 230 226 231 230 223 227 232 242 237 220 197 187 194
179 179 179 176 178 181 182 183 186 192 195 199 206 212 222 224 224 223 222 220 219 219 222 223 219 222 228 226 226 228 227 236 237 242 240 230 228 228 226 226 215 203 194
172 172 175 176 176 179 180 180 183 189 194 200 206 212 221 223 225 225 223 223 221 218 218 221 218 222 225 229 226 223 236 231 230 233 239 242 239 235 232 226 230 218 203
170 171 174 175 177 178 178 180 183 186 192 199 205 210 216 222 223 223 225 221 223 225 218 220 221 224 226 229 224 230 229 229 229 237 241 247 244 237 236 231 229 223 216
167 168 169 172 173 176 178 181 182 185 191 197 198 204 211 219 219 219 221 220 220 219 214 220 224 227 226 229 229 235 232 228 231 235 229 236 240 237 242 236 234 234 230
170 168 168 171 171 173 174 178 181 185 188 192 197 201 208 212 212 213 211 212 217 220 213 218 222 224 226 228 229 233 231 229 231 237 241 238 243 235 237 235 234 233 235
173 170 169 168 169 170 173 176 177 182 186 190 192 197 200 203 206 208 208 209 215 217 217 217 220 224 227 228 226 231 230 230 230 230 227 228 242 240 239 235 234 235 233
170 169 168 168 170 171 172 175 179 183 184 184 186 192 194 196 200 203 206 206 208 214 215 217 219 224 226 224 223 227 227 228 230 230 228 227 221 221 234 232 228 221 216
172 171 172 174 174 173 175 176 181 182 181 181 185 187 189 189 190 192 197 199 202 208 213 213 217 222 224 223 226 229 228 229 232 233 228 226 223 224 223 222 218 209 196
176 178 177 177 175 174 174 178 179 181 181 181 183 186 190 188 187 186 188 192 200 208 211 216 219 218 218 220 225 228 230 229 231 233 233 232 227 224 219 211 202 193 183
178 181 181 176 175 174 174 176 176 176 179 182 184 188 186 184 184 183 185 190 198 205 207 210 211 216 219 221 219 220 219 216 217 222 225 225 202 196 202 204 187 181 183
184 182 182 178 179 178 176 173 173 173 177 181 180 179 178 176 175 175 175 180 188 194 192 199 203 207 220 108 128 208 212 209 207 209 205 181 150 129 118 112 118 162 181
188 185 181 178 177 178 175 173 172 171 174 176 176 176 178 177 176 176 177 180 183 181 182 184 192 191 144 111 134 162 191 195 197 193 184 177 145 132 131 119 110 95 84
188 183 178 174 172 172 171 169 167 171 173 174 176 177 179 177 174 175 173 175 177 177 175 171 174 167 133 118 130 142 161 153 153 162 160 152 147 141 138 128 115 103 86
181 174 174 169 164 166 167 165 166 169 172 174 176 176 179 178 178 179 176 176 175 174 170 162 159 160 137 118 134 151 139 132 128 127 135 143 143 126 132 134 129 119 103
142 149 156 154 157 160 163 166 167 169 174 174 175 177 178 177 180 179 177 173 170 170 162 144 143 151 151 127 145 162 149 143 140 129 123 113 130 136 146 147 142 138 133
130 137 141 145 148 153 159 164 163 167 166 165 165 168 171 174 172 168 169 168 169 167 160 148 143 141 133 129 121 160 164 160 154 149 144 129 119 124 128 139 139 136 135
125 127 127 126 131 146 154 155 155 151 150 153 156 157 160 164 160 161 162 164 167 165 162 155 147 133 120 110 118 110 115 138 150 148 140 128 127 125 123 122 120 127 133
115 117 121 120 119 132 145 142 140 146 150 145 146 149 154 161 165 167 166 168 177 183 178 173 170 161 144 126 115 115 105 98 120 115 108 118 126 124 117 119 132 144 141
112 115 117 116 113 113 114 125 137 149 152 151 156 161 165 166 159 168 181 188 191 192 186 185 185 176 164 158 154 150 137 126 123 123 118 118 119 118 117 134 143 144 134
101 104 106 112 113 115 116 130 140 152 156 159 167 171 173 169 161 150 95 213 194 206 205 198 188 184 184 168 162 167 161 156 149 144 141 140 141 143 147 148 141 141 144
108 104 101 102 104 106 106 110 127 151 160 171 177 179 177 175 176 162 126 53 55 73 78 70 122 136 118 129 133 132 130 132 151 156 155 159 163 165 165 160 157 159 159
Height
1534 1535 1537 1539 1542 1544 1545 1548 1550 1552 1555 1558 1560 1563 1565 1568 1570 1572 1573 1575 1577 1579 1580 1583 1583 1585 1587 1588 1589 1590 1590 1591 1592 1593 1593 1594 1594 1595 1595 1596 1597 1598 1598
1532 1533 1535 1537 1540 1541 1543 1545 1548 1550 1552 1555 1558 1561 1563 1566 1568 1569 1571 1573 1575 1577 1580 1580 1582 1584 1585 1586 1587 1588 1589 1591 1591 1592 1592 1593 1594 1593 1594 1595 1595 1596 1597
1529 1531 1533 1536 1538 1539 1541 1543 1545 1548 1550 1553 1555 1558 1560 1563 1565 1567 1569 1571 1573 1575 1577 1579 1580 1582 1583 1584 1585 1586 1587 1589 1590 1590 1591 1591 1591 1592 1593 1593 1593 1594 1595
1526 1529 1531 1533 1535 1537 1539 1541 1543 1545 1548 1550 1553 1555 1557 1559 1561 1564 1566 1568 1570 1572 1574 1576 1577 1579 1581 1582 1583 1585 1585 1586 1588 1588 1588 1590 1590 1590 1591 1591 1591 1592 1592
1524 1527 1529 1531 1534 1536 1538 1539 1541 1543 1545 1547 1550 1552 1554 1556 1558 1560 1562 1564 1567 1568 1571 1572 1574 1576 1578 1579 1580 1581 1583 1584 1585 1586 1587 1587 1588 1588 1589 1589 1590 1590 1591
1522 1525 1528 1530 1532 1534 1536 1538 1539 1541 1543 1545 1547 1548 1550 1552 1554 1556 1558 1561 1563 1565 1567 1569 1571 1573 1575 1576 1577 1578 1579 1581 1582 1583 1584 1585 1585 1586 1586 1587 1587 1588 1589
1520 1523 1526 1528 1530 1532 1534 1536 1537 1539 1540 1542 1544 1545 1547 1549 1550 1552 1555 1557 1559 1561 1563 1566 1567 1569 1571 1573 1574 1574 1576 1577 1578 1579 1581 1582 1582 1583 1584 1584 1585 1585 1586
1519 1522 1525 1527 1529 1531 1533 1534 1535 1537 1538 1540 1541 1543 1544 1546 1548 1549 1552 1553 1556 1558 1560 1562 1564 1565 1567 1569 1570 1572 1573 1573 1574 1576 1577 1578 1579 1580 1581 1581 1582 1583 1583
1518 1521 1523 1526 1528 1530 1531 1533 1534 1535 1537 1538 1539 1540 1542 1543 1545 1547 1548 1551 1552 1555 1557 1558 1560 1562 1563 1565 1566 1568 1568 1570 1571 1572 1573 1574 1575 1576 1577 1578 1579 1580 1580
1517 1520 1522 1525 1527 1529 1530 1531 1532 1534 1535 1536 1537 1539 1539 1541 1542 1544 1546 1548 1550 1552 1553 1555 1557 1558 1560 1561 1562 1564 1565 1565 1566 1567 1569 1570 1572 1573 1573 1574 1575 1576 1577
1515 1518 1521 1524 1526 1527 1529 1530 1531 1532 1533 1535 1536 1537 1537 1539 1540 1542 1543 1545 1547 1549 1550 1552 1553 1555 1556 1557 1558 1560 1560 1561 1562 1563 1564 1565 1566 1568 1569 1570 1571 1572 1573
1514 1517 1520 1522 1524 1526 1527 1529 1530 1531 1532 1533 1534 1535 1536 1537 1538 1540 1541 1543 1544 1546 1547 1549 1550 1551 1552 1553 1554 1555 1557 1558 1558 1559 1560 1561 1562 1563 1565 1566 1567 1568 1569
1513 1515 1518 1520 1522 1524 1526 1528 1529 1530 1531 1532 1533 1534 1535 1536 1537 1538 1539 1541 1542 1543 1545 1546 1547 1548 1549 1550 1551 1552 1553 1554 1555 1555 1556 1557 1558 1559 1560 1561 1562 1563 1565
1511 1514 1516 1518 1520 1522 1524 1526 1528 1529 1530 1531 1532 1533 1534 1535 1536 1537 1538 1539 1540 1541 1542 1543 1544 1545 1546 1547 1547 1548 1549 1550 1550 1551 1552 1552 1553 1554 1555 1556 1558 1559 1561
1509 1512 1514 1516 1518 1520 1522 1524 1526 1527 1529 1530 1531 1532 1533 1533 1534 1535 1536 1537 1538 1539 1540 1541 1541 1542 1543 1543 1544 1544 1545 1546 1547 1547 1548 1549 1549 1550 1552 1553 1554 1555 1557
1506 1509 1512 1514 1516 1518 1520 1522 1524 1525 1527 1528 1529 1530 1531 1532 1533 1534 1535 1536 1536 1537 1538 1539 1539 1540 1540 1541 1541 1541 1542 1543 1543 1544 1544 1545 1546 1547 1547 1549 1550 1552 1553
1504 1506 1509 1511 1513 1516 1518 1520 1522 1523 1525 1526 1528 1529 1530 1531 1532 1533 1533 1534 1535 1536 1536 1537 1537 1537 1538 1538 1538 1538 1539 1539 1540 1540 1541 1542 1542 1543 1544 1545 1546 1547 1549
1501 1504 1506 1508 1511 1513 1516 1518 1520 1521 1523 1525 1526 1527 1528 1529 1530 1531 1531 1532 1533 1533 1534 1534 1534 1535 1535 1535 1535 1536 1536 1536 1536 1537 1538 1538 1539 1540 1541 1542 1544 1545 1547
1499 1501 1503 1506 1508 1510 1513 1515 1517 1519 1521 1523 1524 1525 1526 1527 1528 1528 1529 1530 1531 1531 1531 1532 1532 1532 1532 1533 1533 1533 1533 1533 1534 1534 1535 1536 1537 1538 1539 1540 1541 1543 1544
1497 1499 1501 1503 1505 1508 1510 1513 1515 1517 1518 1520 1521 1522 1523 1524 1525 1526 1527 1527 1528 1528 1529 1529 1530 1530 1530 1530 1531 1531 1531 1531 1531 1532 1533 1534 1535 1536 1537 1538 1539 1540 1541
1495 1497 1499 1501 1503 1505 1508 1510 1512 1514 1516 1517 1519 1520 1521 1521 1522 1523 1524 1525 1525 1526 1526 1526 1527 1527 1528 1528 1528 1529 1529 1529 1529 1530 1531 1532 1533 1534 1535 1536 1537 1538 1540
1495 1496 1498 1500 1501 1503 1505 1508 1510 1511 1513 1514 1516 1517 1518 1519 1519 1520 1521 1522 1522 1523 1524 1524 1524 1524 1525 1525 1526 1526 1527 1527 1528 1528 1529 1530 1531 1532 1534 1535 1536 1537 1538
1494 1496 1497 1498 1500 1502 1504 1505 1507 1509 1511 1511 1513 1514 1515 1516 1516 1517 1518 1519 1519 1520 1521 1521 1521 1522 1522 1522 1523 1523 1524 1525 1526 1527 1527 1528 1529 1531 1532 1533 1534 1536 1538
1494 1495 1496 1498 1499 1501 1502 1504 1506 1507 1508 1509 1510 1511 1513 1513 1514 1514 1516 1516 1517 1517 1518 1518 1518 1519 1519 1520 1520 1521 1522 1523 1524 1524 1525 1527 1528 1529 1530 1532 1533 1535 1537
1494 1494 1495 1497 1498 1499 1500 1502 1503 1504 1505 1506 1508 1509 1510 1510 1511 1511 1512 1513 1513 1514 1515 1515 1515 1516 1517 1517 1518 1519 1520 1521 1522 1523 1524 1526 1527 1528 1530 1531 1533 1534 1536
1493 1494 1495 1496 1497 1497 1498 1499 1500 1501 1502 1504 1505 1505 1506 1507 1508 1508 1508 1509 1510 1510 1510 1511 1512 1513 1514 1515 1515 1516 1518 1519 1520 1522 1523 1524 1526 1527 1529 1530 1531 1533 1535